Regional Weather Roundup
Issued by NWS

Home | Current Version | Previous Version | Graphics & Text | Print | Product List | Glossary On
Versions: 1 2 3 4 5 6 7 8 9 10 11 12 13 14 15 16 17 18 19 20 21 22 23 24 25 26 27 28 29 30 31 32 33 34 35 36 37 38 39 40 41 42 43 44 45 46 47 48 49 50
000
ASUS43 KLOT 230508
RWRIL

ILLINOIS REGIONAL WEATHER ROUNDUP
NATIONAL WEATHER SERVICE CHICAGO/ROMEOVILLE IL
1100 PM CST WED NOV 22 2017

NOTE: "FAIR" INDICATES FEW OR NO CLOUDS BELOW 12,000 FEET WITH NO
SIGNIFICANT WEATHER AND/OR OBSTRUCTIONS TO VISIBILITY.

* THESE STATIONS ARE NOT UNDER NWS QUALITY CONTROL. THEY ALSO MAY NOT
  REPORT WEATHER SUCH AS PRECIPITATION OR FOG.

ILZ001-002-007-009-015-016-024-230600-
NORTHWEST ILLINOIS

CITY           SKY/WX    TMP DP  RH WIND       PRES   REMARKS
MOLINE         CLOUDY    34  18  52 S6        30.16S WCI  29
STERLING*        N/A     32  23  69 MISG        N/A
SAVANNA*       CLOUDY    32  19  59 S6        30.17R WCI  27
$$

ILZ003-004-008-010-011-017-018-230600-
NORTH CENTRAL ILLINOIS

CITY           SKY/WX    TMP DP  RH WIND       PRES   REMARKS
ROCKFORD       CLOUDY    32  21  64 S7        30.18F WCI  26
FREEPORT*      CLOUDY    31  19  62 S7        30.17S WCI  24
ROCHELLE*      CLOUDY    31  24  74 S9        30.18S WCI  23
DE KALB*       CLOUDY    30  23  73 S8        30.17F WCI  23
PERU*          CLOUDY    31  21  65 S7        30.20F WCI  24
$$

ILZ005-006-012>014-019>023-230600-
NORTHEAST ILLINOIS

CITY           SKY/WX    TMP DP  RH WIND       PRES   REMARKS
CHICAGO-OHARE  CLOUDY    32  18  56 SW8       30.18S WCI  25
CHICAGO-MIDWAY CLOUDY    32  19  58 SW9       30.20S WCI  24
AURORA         CLOUDY    31  20  63 S7        30.20R WCI  24
LANSING*       PTCLDY    27  22  84 S5        30.21S WCI  21
JOLIET*        CLOUDY    32  21  63 S5        30.21S WCI  27
WAUKEGAN       CLOUDY    31  19  61 SW8       30.16S WCI  23
DUPAGE AIRPORT CLOUDY    30  20  66 S8        30.17F WCI  22
KANKAKEE*      PTCLDY    30  20  66 SW5       30.23R WCI  25
WHEELING       CLOUDY    32  19  58 SW7       30.19F WCI  26
MORRIS*        CLOUDY    31  23  72 S6        30.20S WCI  25
ROMEOVILLE*    CLOUDY    30  22  72 S5        30.20S WCI  25
NORTHERLY ISL    N/A     32  16  52 S8          N/A  WCI  25
$$

LMZ740>746-230600-
SOUTHERN LAKE MICHIGAN

STATION/POSITION SKY/WX   TEMP    WIND        PRES    VSBY  WAVE
                          AIR SEA DIR/SP/G                  HT/PER
                          (F)     (DEG/KT/KT) (MB)    (MI)  (FT/S)
SOUTHERN BUOY              35 47  260/ 16/ 19 1022.1S         3/ 4
HARRISON CRIB              33     210/ 12/ 14   N/A
BURNHAM HARBOR             32     180/  7/  9   N/A
CALUMET HARBOR             32     200/  6/  9 1021.9F
BURNS HARBOR               31     210/  7/  9 1023.4S
MICHIGAN CITY              30     180/  8/  9   N/A
$$

ILZ025>027-034>036-040-047-049-050-058-095>099-230600-
WEST-CENTRAL ILLINOIS

CITY           SKY/WX    TMP DP  RH WIND       PRES   REMARKS
QUINCY         MOCLDY    31  19  61 S7        30.19S WCI  24
GALESBURG*     CLOUDY    32  23  69 S8        30.18F WCI  25
MACOMB*        CLOUDY    31  21  64 S6        30.21S WCI  26
JACKSONVILLE*  CLOUDY    32  20  60 S6        30.21F WCI  26
PITTSFIELD*    CLOUDY    30  21  70 S5        30.21F WCI  25
$$

ILZ028>032-037-038-041>044-048-051>054-059>061-230600-
CENTRAL ILLINOIS

CITY           SKY/WX    TMP DP  RH WIND       PRES   REMARKS
PONTIAC        CLOUDY    32  22  66 S6        30.23R WCI  26
BLOOMINGTON    CLOUDY    28  22  78 S7        30.21F WCI  21
DECATUR        PTCLDY    30  23  75 CALM      30.24S
PEORIA         CLOUDY    32  21  64 S6        30.21F WCI  26
LACON*         CLOUDY    32  19  58 S5        30.20R WCI  27
LINCOLN*       CLOUDY    31  25  80 S6        30.22F WCI  25
SPRINGFIELD    CLOUDY    32  22  66 S7        30.22F WCI  26
TAYLORVILLE    MOCLDY    31  23  72 S3        30.24S
$$

ILZ033-039-045-046-055>057-062-063-230600-
EAST-CENTRAL ILLINOIS

CITY           SKY/WX    TMP DP  RH WIND       PRES   REMARKS
CHAMPAIGN      CLOUDY    31  23  72 SW6       30.24R WCI  25
DANVILLE*      MOCLDY    27  24  87 CALM      30.20F
RANTOUL*       CLOUDY    32  27  83 SW3       30.23R
MATTOON        PTCLDY    27  21  78 SW5       30.23F WCI  22
PARIS*         MOCLDY    27  25  91 CALM      30.25S
$$

ILZ079-100>102-230600-
SOUTHWEST ILLINOIS

CITY           SKY/WX    TMP DP  RH WIND       PRES   REMARKS
ALTON          CLOUDY    29  26  89 SE3       30.24F
BELLEVILLE     CLOUDY    29  21  73 CALM      30.24F
CAHOKIA*       CLOUDY    32  21  64 CALM      30.25F
SPARTA*        PTCLDY    30  22  70 CALM      30.25F
$$

ILZ064>066-069>071-074>076-080>082-084>086-088>090-092>094-230600-
SOUTH-CENTRAL ILLINOIS

CITY           SKY/WX    TMP DP  RH WIND       PRES   REMARKS
CARBONDALE     PTCLDY    23  22  96 S3        30.27F
CAIRO*         PTCLDY    25  21  87 CALM      30.28S
EFFINGHAM*     CLOUDY    26  23  90 CALM      30.26F
MARION         MOCLDY    27  25  92 CALM      30.27F
MT. VERNON     CLOUDY    24  21  88 CALM      30.26F
CENTRALIA*     PTCLDY    26  25  94 CALM      30.24F
SALEM*         PTCLDY    28  23  79 CALM      30.24F
METROPOLIS*    CLOUDY    26  21  82 CALM      30.27F
$$

ILZ067-068-072-073-078-083-087-091-230600-
SOUTHEAST ILLINOIS

CITY           SKY/WX    TMP DP  RH WIND       PRES   REMARKS
LAWRENCEVILLE  MOCLDY    29  24  82 CALM      30.26F
FLORA*         MOCLDY    28  26  90 CALM      30.26F
FAIRFIELD*     CLOUDY    27  24  88 CALM      30.25F
HARRISBURG*    CLOUDY    25  22  88 CALM      30.27F
ROBINSON*      CLOUDY    26  24  91 CALM      30.26S
CARMI*         CLOUDY    25  22  88 CALM      30.26F
$$

ABBREVIATIONS USED IN REMARKS
   TC - TEMPERATURE IN CELSIUS
  WCI - WIND CHILL INDEX
   HX - HEAT INDEX
  VSB - VISIBILITY
$$




USA.gov is the U.S. government's official web portal to all federal, state and local government web resources and services.